DAL5787 KSAV-KATL

Flight info

Callsign DAL5787
Flight time 0h 37m
Altitude 24000
Route SMALZ TYFTR JJEDI4
Aircraft B739/M-SDE2E3FGHIRWXY/LB1

Departure

Time 2026-05-07 16:46
Airport Savannah Hilton Head International Airport (KSAV)

Arrival

Time 2026-05-07 17:24
Airport Hartsfield Jackson Atlanta International Airport (KATL)
Time Latitude Longitude Altitude Speed Heading
2026-05-07 16:15 32.13604 -81.20720 35 ft 0 kts 201°
2026-05-07 16:38 32.13608 -81.20719 36 ft 2 kts 200°
2026-05-07 16:38 32.13626 -81.20713 36 ft 3 kts 183°
2026-05-07 16:38 32.13645 -81.20714 34 ft 3 kts 160°
2026-05-07 16:38 32.13662 -81.20725 33 ft 3 kts 135°
2026-05-07 16:39 32.13673 -81.20742 34 ft 3 kts 104°
2026-05-07 16:39 32.13675 -81.20749 34 ft 0 kts 96°
2026-05-07 16:42 32.13675 -81.20746 34 ft 4 kts 96°
2026-05-07 16:42 32.13674 -81.20739 34 ft 0 kts 95°
2026-05-07 16:42 32.13673 -81.20715 34 ft 9 kts 91°
2026-05-07 16:43 32.13672 -81.20602 37 ft 15 kts 90°
2026-05-07 16:43 32.13672 -81.20480 41 ft 16 kts 90°
2026-05-07 16:43 32.13667 -81.20373 53 ft 11 kts 111°
2026-05-07 16:43 32.13602 -81.20336 54 ft 11 kts 158°
2026-05-07 16:44 32.13571 -81.20259 60 ft 11 kts 93°
2026-05-07 16:44 32.13573 -81.20171 66 ft 11 kts 90°
2026-05-07 16:44 32.13573 -81.20146 67 ft 0 kts 90°
2026-05-07 16:44 32.13573 -81.20130 61 ft 7 kts 90°
2026-05-07 16:45 32.13573 -81.20057 62 ft 9 kts 89°
2026-05-07 16:45 32.13559 -81.20021 61 ft 0 kts 158°
2026-05-07 16:45 32.13548 -81.20017 69 ft 6 kts 167°
2026-05-07 16:45 32.13267 -81.20012 56 ft 83 kts 179°
2026-05-07 16:46 32.12430 -81.20010 48 ft 153 kts 182°
2026-05-07 16:46 32.11295 -81.20014 533 ft 168 kts 182°
2026-05-07 16:46 32.10150 -81.20253 1250 ft 167 kts 217°
2026-05-07 16:46 32.09531 -81.21338 1975 ft 164 kts 254°
2026-05-07 16:47 32.09317 -81.22768 2251 ft 193 kts 275°
2026-05-07 16:47 32.09807 -81.24337 2505 ft 220 kts 307°
2026-05-07 16:47 32.10993 -81.25645 2742 ft 250 kts 325°
2026-05-07 16:47 32.12518 -81.26784 3296 ft 266 kts 328°
2026-05-07 16:48 32.14107 -81.27928 4204 ft 269 kts 329°
2026-05-07 16:48 32.15711 -81.29080 5135 ft 272 kts 328°
2026-05-07 16:48 32.17337 -81.30258 6014 ft 276 kts 328°
2026-05-07 16:48 32.18983 -81.31460 6902 ft 280 kts 328°
2026-05-07 16:49 32.20651 -81.32687 7788 ft 285 kts 328°
2026-05-07 16:49 32.22342 -81.33938 8683 ft 289 kts 328°
2026-05-07 16:49 32.24056 -81.35210 9567 ft 293 kts 328°
2026-05-07 16:49 32.25798 -81.36506 10431 ft 301 kts 328°
2026-05-07 16:50 32.27650 -81.37886 10709 ft 329 kts 328°
2026-05-07 16:50 32.29647 -81.39376 11121 ft 347 kts 328°
2026-05-07 16:50 32.31710 -81.40916 11869 ft 353 kts 328°
2026-05-07 16:50 32.33796 -81.42475 12753 ft 356 kts 328°
2026-05-07 16:51 32.35901 -81.44050 13623 ft 360 kts 328°
2026-05-07 16:51 32.38030 -81.45644 14453 ft 365 kts 328°
2026-05-07 16:51 32.40189 -81.47260 15285 ft 369 kts 327°
2026-05-07 16:51 32.42373 -81.48896 16121 ft 374 kts 327°
2026-05-07 16:52 32.44537 -81.50626 16898 ft 379 kts 319°
2026-05-07 16:52 32.46178 -81.53068 17631 ft 383 kts 296°
2026-05-07 16:52 32.46980 -81.56075 18394 ft 387 kts 278°
2026-05-07 16:52 32.46933 -81.59264 19107 ft 391 kts 263°
2026-05-07 16:53 32.46558 -81.62468 19782 ft 396 kts 261°
2026-05-07 16:53 32.46132 -81.65708 20419 ft 400 kts 261°
2026-05-07 16:53 32.45697 -81.68981 21048 ft 405 kts 261°
2026-05-07 16:53 32.45266 -81.72288 21663 ft 409 kts 261°
2026-05-07 16:54 32.44985 -81.74501 22055 ft 411 kts 261°
2026-05-07 16:54 32.44566 -81.77863 22622 ft 415 kts 262°
2026-05-07 16:54 32.44149 -81.81258 23201 ft 417 kts 262°
2026-05-07 16:54 32.43734 -81.84656 23789 ft 418 kts 262°
2026-05-07 16:55 32.43318 -81.88069 23923 ft 421 kts 262°
2026-05-07 16:55 32.42896 -81.91529 23946 ft 427 kts 262°
2026-05-07 16:55 32.42469 -81.95016 23952 ft 428 kts 262°
2026-05-07 16:55 32.42041 -81.98500 23962 ft 427 kts 262°
2026-05-07 16:56 32.41614 -82.01972 23971 ft 426 kts 262°
2026-05-07 16:56 32.41186 -82.05437 23974 ft 426 kts 262°
2026-05-07 16:56 32.40450 -82.12383 23953 ft 426 kts 271°
2026-05-07 16:57 32.40912 -82.15837 23996 ft 425 kts 283°
2026-05-07 16:57 32.41563 -82.19250 23976 ft 426 kts 283°
2026-05-07 16:57 32.42210 -82.22679 23974 ft 427 kts 282°
2026-05-07 16:57 32.42845 -82.26114 23971 ft 427 kts 282°
2026-05-07 16:58 32.43466 -82.29552 23970 ft 428 kts 282°
2026-05-07 16:58 32.44079 -82.32994 23972 ft 428 kts 282°
2026-05-07 16:58 32.44687 -82.36441 23971 ft 428 kts 282°
2026-05-07 16:58 32.45291 -82.39887 23967 ft 428 kts 282°
2026-05-07 16:59 32.45893 -82.43333 23952 ft 427 kts 282°
2026-05-07 16:59 32.46494 -82.46778 23965 ft 427 kts 282°
2026-05-07 16:59 32.47094 -82.50223 23959 ft 427 kts 282°
2026-05-07 16:59 32.47692 -82.53663 23952 ft 427 kts 282°
2026-05-07 17:00 32.48290 -82.57106 23964 ft 427 kts 282°
2026-05-07 17:00 32.48887 -82.60546 23950 ft 426 kts 281°
2026-05-07 17:00 32.49483 -82.63989 23966 ft 426 kts 281°
2026-05-07 17:00 32.50077 -82.67427 23959 ft 426 kts 281°
2026-05-07 17:01 32.50670 -82.70867 23965 ft 426 kts 281°
2026-05-07 17:01 32.51263 -82.74310 23960 ft 426 kts 281°
2026-05-07 17:01 32.51855 -82.77750 23965 ft 426 kts 281°
2026-05-07 17:01 32.52438 -82.81148 23966 ft 426 kts 281°
2026-05-07 17:02 32.53036 -82.84637 23959 ft 427 kts 281°
2026-05-07 17:02 32.53625 -82.88083 23953 ft 426 kts 281°
2026-05-07 17:02 32.54213 -82.91526 23957 ft 426 kts 281°
2026-05-07 17:02 32.54800 -82.94968 23958 ft 426 kts 281°
2026-05-07 17:03 32.55379 -82.98372 23953 ft 426 kts 281°
2026-05-07 17:03 32.55964 -83.01815 23954 ft 426 kts 281°
2026-05-07 17:03 32.56556 -83.05307 23946 ft 426 kts 281°
2026-05-07 17:03 32.57140 -83.08755 23955 ft 426 kts 281°
2026-05-07 17:04 32.57722 -83.12197 23958 ft 426 kts 281°
2026-05-07 17:04 32.58305 -83.15644 23949 ft 426 kts 282°
2026-05-07 17:04 32.59242 -83.18914 23943 ft 426 kts 298°
2026-05-07 17:04 32.60997 -83.21721 23958 ft 425 kts 316°
2026-05-07 17:05 32.63193 -83.24065 23836 ft 423 kts 319°
2026-05-07 17:05 32.65418 -83.26322 23572 ft 418 kts 320°
2026-05-07 17:05 32.67622 -83.28541 23321 ft 414 kts 320°
2026-05-07 17:05 32.69806 -83.30755 23073 ft 413 kts 319°
2026-05-07 17:06 32.71981 -83.32983 22824 ft 412 kts 319°
2026-05-07 17:06 32.74142 -83.35215 22575 ft 412 kts 319°
2026-05-07 17:06 32.76294 -83.37451 22328 ft 411 kts 319°
2026-05-07 17:06 32.78437 -83.39684 21703 ft 409 kts 319°
2026-05-07 17:07 32.80557 -83.41896 21064 ft 403 kts 319°
2026-05-07 17:07 32.82651 -83.44083 20389 ft 399 kts 319°
2026-05-07 17:07 32.84723 -83.46249 19727 ft 395 kts 319°
2026-05-07 17:07 32.86774 -83.48393 19061 ft 391 kts 319°
2026-05-07 17:08 32.88805 -83.50517 18417 ft 387 kts 319°
2026-05-07 17:08 32.90815 -83.52621 17762 ft 383 kts 319°
2026-05-07 17:08 32.92808 -83.54707 17122 ft 379 kts 319°
2026-05-07 17:08 32.94755 -83.56747 16879 ft 365 kts 319°
2026-05-07 17:09 32.96657 -83.58739 16239 ft 363 kts 319°
2026-05-07 17:09 32.98548 -83.60718 15661 ft 360 kts 319°
2026-05-07 17:09 33.00424 -83.62683 15075 ft 358 kts 319°
2026-05-07 17:09 33.02283 -83.64633 14488 ft 355 kts 319°
2026-05-07 17:10 33.04132 -83.66572 13902 ft 353 kts 319°
2026-05-07 17:10 33.05964 -83.68496 13325 ft 350 kts 319°
2026-05-07 17:10 33.07783 -83.70406 12744 ft 347 kts 319°
2026-05-07 17:10 33.09588 -83.72303 12195 ft 344 kts 319°
2026-05-07 17:11 33.11346 -83.74152 12033 ft 329 kts 319°
2026-05-07 17:11 33.13028 -83.75922 11882 ft 316 kts 319°
2026-05-07 17:11 33.14649 -83.77628 11595 ft 309 kts 318°
2026-05-07 17:11 33.16253 -83.79322 11174 ft 307 kts 318°
2026-05-07 17:12 33.17844 -83.81004 10761 ft 305 kts 318°
2026-05-07 17:12 33.19440 -83.82654 10406 ft 300 kts 321°
2026-05-07 17:12 33.21081 -83.84145 10166 ft 294 kts 323°
2026-05-07 17:12 33.22727 -83.85572 9910 ft 292 kts 324°
2026-05-07 17:13 33.24357 -83.86978 9655 ft 286 kts 324°
2026-05-07 17:13 33.25957 -83.88364 9402 ft 283 kts 324°
2026-05-07 17:13 33.27537 -83.89743 9149 ft 280 kts 323°
2026-05-07 17:13 33.29106 -83.91119 8902 ft 279 kts 323°
2026-05-07 17:14 33.30664 -83.92491 8653 ft 278 kts 323°
2026-05-07 17:14 33.32196 -83.93842 8408 ft 277 kts 323°
2026-05-07 17:14 33.33774 -83.95238 8160 ft 279 kts 323°
2026-05-07 17:14 33.35310 -83.96599 7915 ft 278 kts 323°
2026-05-07 17:15 33.36874 -83.97985 7656 ft 275 kts 323°
2026-05-07 17:15 33.38404 -83.99342 7402 ft 273 kts 323°
2026-05-07 17:15 33.39899 -84.00670 7155 ft 271 kts 323°
2026-05-07 17:15 33.41407 -84.02010 6907 ft 269 kts 323°
2026-05-07 17:16 33.42907 -84.03344 6657 ft 268 kts 323°
2026-05-07 17:16 33.44399 -84.04670 6406 ft 267 kts 323°
2026-05-07 17:16 33.45885 -84.05993 6158 ft 266 kts 323°
2026-05-07 17:16 33.47367 -84.07312 5908 ft 265 kts 323°
2026-05-07 17:17 33.48845 -84.08629 5658 ft 264 kts 323°
2026-05-07 17:17 33.50318 -84.09942 5400 ft 264 kts 323°
2026-05-07 17:17 33.51789 -84.11253 5160 ft 263 kts 323°
2026-05-07 17:17 33.53255 -84.12561 4915 ft 262 kts 323°
2026-05-07 17:18 33.54718 -84.13865 4660 ft 262 kts 323°
2026-05-07 17:18 33.56176 -84.15168 4414 ft 261 kts 323°
2026-05-07 17:18 33.57596 -84.16435 4384 ft 248 kts 323°
2026-05-07 17:18 33.58952 -84.17647 4280 ft 238 kts 323°
2026-05-07 17:19 33.60243 -84.18801 4218 ft 224 kts 323°
2026-05-07 17:19 33.61450 -84.19879 4088 ft 210 kts 323°
2026-05-07 17:19 33.62551 -84.20917 4008 ft 193 kts 313°
2026-05-07 17:19 33.63025 -84.22337 4007 ft 182 kts 272°
2026-05-07 17:20 33.63090 -84.23812 3997 ft 174 kts 274°
2026-05-07 17:20 33.63168 -84.25291 3694 ft 180 kts 272°
2026-05-07 17:20 33.63194 -84.26760 3458 ft 174 kts 270°
2026-05-07 17:20 33.63197 -84.28183 3217 ft 168 kts 270°
2026-05-07 17:21 33.63195 -84.29533 3004 ft 156 kts 270°
2026-05-07 17:21 33.63193 -84.30788 2799 ft 145 kts 270°
2026-05-07 17:21 33.63191 -84.31951 2646 ft 133 kts 271°
2026-05-07 17:21 33.63190 -84.33063 2451 ft 133 kts 271°
2026-05-07 17:22 33.63188 -84.34177 2300 ft 133 kts 272°
2026-05-07 17:22 33.63186 -84.35279 2099 ft 131 kts 273°
2026-05-07 17:22 33.63186 -84.36374 1924 ft 131 kts 273°
2026-05-07 17:22 33.63185 -84.37466 1754 ft 131 kts 273°
2026-05-07 17:23 33.63184 -84.38567 1579 ft 132 kts 272°
2026-05-07 17:23 33.63183 -84.39668 1399 ft 132 kts 272°
2026-05-07 17:23 33.63183 -84.40763 1229 ft 132 kts 272°
2026-05-07 17:23 33.63182 -84.41863 1055 ft 132 kts 272°
2026-05-07 17:24 33.63184 -84.42905 1006 ft 106 kts 267°
2026-05-07 17:24 33.63183 -84.43529 1007 ft 44 kts 270°
2026-05-07 17:24 33.63184 -84.43879 1003 ft 42 kts 270°
2026-05-07 17:24 33.63229 -84.44162 1004 ft 25 kts 294°
2026-05-07 17:25 33.63255 -84.44221 1005 ft 0 kts 300°
2026-05-07 17:25 33.63256 -84.44222 1005 ft 0 kts 300°
2026-05-07 17:25 33.63257 -84.44226 1005 ft 2 kts 300°
2026-05-07 17:25 33.63300 -84.44260 1005 ft 11 kts 354°
2026-05-07 17:26 33.63368 -84.44221 1005 ft 11 kts 40°
2026-05-07 17:26 33.63439 -84.44195 1005 ft 11 kts
2026-05-07 17:26 33.63529 -84.44194 1006 ft 14 kts
2026-05-07 17:26 33.63580 -84.44113 1006 ft 13 kts 83°
2026-05-07 17:27 33.63581 -84.44006 1006 ft 13 kts 91°
2026-05-07 17:27 33.63580 -84.43900 1006 ft 12 kts 91°
2026-05-07 17:27 33.63585 -84.43798 1006 ft 13 kts 71°
2026-05-07 17:27 33.63667 -84.43768 1005 ft 15 kts 342°
2026-05-07 17:28 33.63768 -84.43786 1005 ft 14 kts 359°
2026-05-07 17:28 33.63866 -84.43786 1005 ft 14 kts 360°
2026-05-07 17:28 33.63958 -84.43787 1005 ft 10 kts 359°
2026-05-07 17:28 33.63991 -84.43788 1005 ft 3 kts 358°
2026-05-07 17:29 33.64010 -84.43805 1005 ft 4 kts 297°
2026-05-07 17:29 33.64014 -84.43839 1005 ft 4 kts 273°
2026-05-07 17:29 33.64015 -84.43864 1005 ft 3 kts 271°
2026-05-07 17:29 33.64015 -84.43868 1005 ft 0 kts 271°